Miscellaneous Local Product
Issued by NWS Hastings, NE

Home | Current Version | Previous Version | Text Only | Print | Product List | Glossary Off
Versions: 1 2 3 4 5 6 7 8 9 10 11 12 13 14 15 16 17 18 19 20 21 22 23 24 25 26 27 28 29 30 31 32 33 34 35 36 37 38 39 40 41 42 43 44 45 46 47 48 49 50

000
AXUS43 KGID 271402
MISGRI

GID CWA HOURLY WEATHER ROUNDUP
NATIONAL WEATHER SERVICE HASTINGS NE
900 AM CDT THU APR 27 2017

NOTE: "FAIR" INDICATES FEW OR NO CLOUDS BELOW 12,000 FEET WITH NO
SIGNIFICANT WEATHER AND/OR OBSTRUCTIONS TO VISIBILITY.

...SOUTH CENTRAL NEBRASKA...

CITY           SKY/WX    TMP DP  RH WIND       PRES   REMARKS
GRAND ISLAND   SUNNY     38  32  79 NW6       29.72R WCI  33
HASTINGS       MOSUNNY   42  32  67 N7        29.72S
KEARNEY        CLOUDY    36  28  75 W5        29.72R WCI  32
ORD            SUNNY     37  30  75 N5        29.70R WCI  33
YORK           SUNNY     39  32  75 N6        29.72S WCI  35
AURORA         SUNNY     39  32  74 NW7       29.72R WCI  34
LEXINGTON      MOSUNNY   38  32  78 CALM      29.70S
HOLDREGE       MOSUNNY   40  31  67 CALM      29.71R
HEBRON         SUNNY     40  31  71 CALM      29.74R

...NEBRASKA PANHANDLE...

CITY           SKY/WX    TMP DP  RH WIND       PRES   REMARKS
CHADRON        CLOUDY    34  30  85 NE8       29.63R WCI  27
ALLIANCE       SUNNY     36  31  82 SE12      29.60R WCI  28
SCOTTSBLUFF    PTSUNNY   39  35  86 E14       29.58R WCI  31
SIDNEY         MOSUNNY   38  35  89 E7        29.59R WCI  33

...WESTERN AND NORTH CENTRAL NEBRASKA...

CITY           SKY/WX    TMP DP  RH WIND       PRES   REMARKS
VALENTINE      SUNNY     34  27  75 CALM      29.69R
AINSWORTH      SUNNY     34  31  91 N5        29.69R WCI  29
ONEILL         CLOUDY    31  29  92 N9        29.72R WCI  23
BROKEN BOW     CLOUDY    40  31  70 N8        29.68S WCI  34
IMPERIAL       CLOUDY    39  32  76 SE13      29.62F WCI  31
NORTH PLATTE   CLOUDY    41  33  73 E6        29.67S
MCCOOK         CLOUDY    38  33  82 E8        29.66F WCI  32

...EASTERN NEBRASKA...

CITY           SKY/WX    TMP DP  RH WIND       PRES   REMARKS
NORFOLK        CLOUDY    34  28  79 N8        29.70R WCI  27
SO SIOUX CITY  CLOUDY    34  28  79 NW13      29.71R WCI  25
TEKAMAH        CLOUDY    37  28  70 NW18      29.73R WCI  27
COLUMBUS       SUNNY     37  28  70 NW10G18   29.73S WCI  30
ALBION         SUNNY     36  31  81 N10       29.71S WCI  28
OMAHA EPPLEY   CLOUDY    38  29  70 NW13      29.73R WCI  30
MILLARD        CLOUDY    40  33  74 NW8       29.73R
LINCOLN        SUNNY     41  30  65 N15       29.74S
NEBRASKA CITY  CLOUDY    42  30  62 N9        29.72S
BEATRICE       SUNNY     41  32  70 N7        29.72F
FALLS CITY     MOSUNNY   44  33  65 NW13      29.72S

...NORTHERN KANSAS...

CITY           SKY/WX    TMP DP  RH WIND       PRES   REMARKS
GOODLAND       CLOUDY    44  34  67 S13       29.59S
HILL CITY      SUNNY     40  35  83 E8        29.71R WCI  34
NORTON         CLOUDY    37  30  75 E7        29.69R WCI  32
PHILLIPSBURG   MOSUNNY   41  32  70 SE6       29.72S
SMITH CENTER   MOSUNNY   37  30  75 CALM      29.74R
HAYS           CLOUDY    39  35  86 SE9       29.73R WCI  33
RUSSELL        CLOUDY    40  34  79 SE7       29.73R
CONCORDIA      SUNNY     44  34  67 N5        29.74S
SALINA         SUNNY     44  35  70 SE3       29.77R
TOPEKA         SUNNY     46  35  65 W8        29.76R



USA.gov is the U.S. government's official web portal to all federal, state and local government web resources and services.